weather.gov     
National Weather Service

Regional Weather Roundup
NWS Homepage
This page is being discontinued on March 12, 2014.
The same data is available at this site. Please update your bookmarks.
Thank you, and we apologize for the inconvenience.
Please send an email to SR-SRH.Webmaster@noaa.gov with any concerns.


Current Version
Previous Version:    01  02  03  04  05  06  07  08  09  10  11  12  13  14  15  16  17  18  19  20  21  22  23  24  25  26  27  
[Printable]
106
ASUS42 KCAE 221310
RWRCAE
REGIONAL WEATHER ROUNDUP
NATIONAL WEATHER SERVICE COLUMBIA SC
800 AM EST SAT NOV 22 2014

NOTE: "FAIR" INDICATES FEW OR NO CLOUDS BELOW 12,000 FEET WITH NO
SIGNIFICANT WEATHER AND/OR OBSTRUCTIONS TO VISIBILITY.

NOT ALL STATIONS ARE QUALITY CONTROLLED BY THE NATIONAL
WEATHER SERVICE. USE DATA WITH CAUTION...ESPECIALLY
DEWPOINT OBSERVATIONS.

SCZ001>056-GAZ040-063>065-077-221400-
...UPSTATE SOUTH CAROLINA...

CITY           SKY/WX    TMP DP  RH WIND       PRES   REMARKS
ANDERSON       CLEAR     36  17  46 NE7       30.52F WCI  30
LIBERTY          N/A    N/A N/A N/A NE3       30.52R
SPARTANBURG    FAIR      32  21  64 N5        30.55S WCI  27
CLEMSON        CLEAR     35  19  52 N3        30.54R
GREENVILLE     CLEAR     34  16  47 NE7       30.54S WCI  28
GREENWOOD      CLEAR     31  21  66 NE6       30.55S WCI  25
GREER          CLEAR     32  17  54 N6        30.53S WCI  26
ROCK HILL      CLEAR     27  21  78 CALM      30.56S
CHESTER        FAIR      32  18  55 NE5       30.56S WCI  27
LAURENS        FAIR      30  14  51 N6        30.54S WCI  24


...CENTRAL SOUTH CAROLINA...

CITY           SKY/WX    TMP DP  RH WIND       PRES   REMARKS
COLUMBIA APT   FAIR      34  22  61 N3        30.55R
COLUMBIA OWENS CLEAR     33  18  53 CALM      30.56R
DARLINGTON     MOSUNNY   28  18  64 N5        30.58R WCI  23
FLORENCE       MOSUNNY   32  19  58 NE5       30.56R WCI  27
MCENTIRE ANGB  CLEAR     33  19  55 E3        30.54S
ORANGEBURG     CLEAR     35  20  54 NE9       30.53R WCI  28
SUMTER SHAW    PTCLDY    30  22  69 NE8       30.53F WCI  23
NEWBERRY       FAIR      30  21  69 NE7       30.57S WCI  23
AIKEN          FAIR      32  23  69 NE8       30.53F WCI  25
BARNWELL       FAIR      37  28  70 E6        30.51R WCI  33
CAMDEN         FAIR      30  16  55 CALM      30.57R
LANCASTER      FAIR      28  23  80 CALM      30.57R
WINNSBORO      FAIR      32  21  64 NE5       30.54S WCI  27


...EASTERN AND COASTAL SOUTH CAROLINA...

CITY           SKY/WX    TMP DP  RH WIND       PRES   REMARKS
MYRTLE BEACH   SUNNY     34  25  69 N7        30.54S WCI  28
N MYRTLE BCH   SUNNY     36  26  67 NE8       30.54S WCI  30
CONWAY         FAIR      34  27  75 N5        30.56R HAZE    WCI  30
MARION         FAIR      34  23  64 NE5       30.56S WCI  30
FLORENCE       MOSUNNY   32  19  58 NE5       30.56R WCI  27
DARLINGTON     MOSUNNY   28  18  64 N5        30.58R WCI  23
CHARLESTON APT SUNNY     40  33  76 NE8       30.50S WCI  34
MOUNT PLEASANT FAIR      37  34  87 N5        30.50S WCI  34
WALTERBORO     SUNNY     43  30  61 NE6       30.51R
BEAUFORT       SUNNY     45  36  70 NE7       30.48R


...EASTERN GEORGIA...

CITY           SKY/WX    TMP DP  RH WIND       PRES   REMARKS
AUGUSTA BUSH F CLEAR     33  27  78 CALM      30.51R
AUGUSTA DANIEL CLEAR     40  24  53 NE9       30.50R WCI  34
THOMSON        CLEAR     32  32 100 CALM      30.54S
WASHINGTON     FAIR      36  30  80 NE5       30.50S WCI  32
CLAXTON        FAIR      46  36  66 E7        30.45S
SYLVANIA       SUNNY     43  35  73 E7        30.48S
STATESBORO     CLEAR     41  34  77 NE3       30.47S
SAVANNAH       SUNNY     49  37  63 NE8       30.45S


...SOUTHERN NORTH CAROLINA...

CITY           SKY/WX    TMP DP  RH WIND       PRES   REMARKS
CHARLOTTE      PTCLDY    28  21  75 CALM      30.56S
MONROE         PTCLDY    29  15  56 NE5       30.55S WCI  24
WADESBORO      MOSUNNY   22  19  87 CALM      30.58R
ROCKINGHAM     SUNNY     27  19  71 CALM      30.57R
RUTHERFORDTON  CLEAR     26  20  77 CALM      30.56R
ASHEVILLE      CLEAR     24  19  81 CALM      30.50S

$$




U.S. Dept. of Commerce
NOAA National Weather Service
1325 East West Highway
Silver Spring, MD 20910
E-mail: w-nws.webmaster@noaa.gov
Page last modified: May 16, 2007
NATIONAL WEATHER SERVICE: for Safety, for Work, for Fun - FOR LIFE